Météo par heure à Dziadkowo

Ce jour, 15 Janvier, Vendredi

Heure Température Précipitation Vent Pression Humidité
00:00 -6°C° 0 mm 2 m/s 747 mmHg 96%
01:00 -5°C° 0 mm 2 m/s 747 mmHg 99%
02:00 -5°C° 0 mm 2 m/s 747 mmHg 98%
03:00 -5°C° 0 mm 2 m/s 747 mmHg 97%
04:00 -5°C° 0 mm 2 m/s 748 mmHg 96%
05:00 -6°C° 0 mm 2 m/s 748 mmHg 97%
06:00 -4°C° 0 mm 1 m/s 748 mmHg 97%
07:00 -4°C° 0 mm 1 m/s 748 mmHg 97%
08:00 -3°C° 0 mm 1 m/s 748 mmHg 96%
09:00 -3°C° 0 mm 1 m/s 749 mmHg 95%
10:00 -4°C° 0 mm 2 m/s 749 mmHg 93%
11:00 -4°C° 0.1 mm 2 m/s 749 mmHg 94%
12:00 -3°C° 0.1 mm 2 m/s 749 mmHg 94%
13:00 -3°C° 0 mm 2 m/s 749 mmHg 90%
14:00 -3°C° 0.1 mm 2 m/s 749 mmHg 91%
15:00 -3°C° 0.1 mm 2 m/s 749 mmHg 93%
16:00 -5°C° 0.1 mm 3 m/s 749 mmHg 94%
17:00 -5°C° 0 mm 3 m/s 749 mmHg 93%
18:00 -6°C° 0 mm 3 m/s 749 mmHg 92%
19:00 -8°C° 0 mm 4 m/s 750 mmHg 91%
20:00 -7°C° 0 mm 3 m/s 750 mmHg 93%
21:00 -7°C° 0 mm 3 m/s 750 mmHg 94%
22:00 -7°C° 0 mm 3 m/s 751 mmHg 95%
23:00 -7°C° 0.1 mm 3 m/s 751 mmHg 95%

Demain, 16 Janvier, Samedi

Heure Température Précipitation Vent Pression Humidité
00:00 -7°C° 0.1 mm 3 m/s 751 mmHg 95%
01:00 -8°C° 0.1 mm 4 m/s 751 mmHg 95%
02:00 -8°C° 0.1 mm 4 m/s 751 mmHg 95%
03:00 -8°C° 0.1 mm 4 m/s 750 mmHg 94%
04:00 -8°C° 0.1 mm 4 m/s 750 mmHg 94%
05:00 -8°C° 0.1 mm 4 m/s 750 mmHg 94%
06:00 -8°C° 0.1 mm 4 m/s 750 mmHg 94%
07:00 -8°C° 0.1 mm 4 m/s 751 mmHg 94%
08:00 -8°C° 0.1 mm 5 m/s 750 mmHg 94%
09:00 -8°C° 0.1 mm 5 m/s 750 mmHg 93%
10:00 -8°C° 0.1 mm 5 m/s 750 mmHg 93%
11:00 -8°C° 0 mm 5 m/s 750 mmHg 91%
12:00 -9°C° 0 mm 6 m/s 749 mmHg 90%
13:00 -8°C° 0 mm 6 m/s 749 mmHg 89%
14:00 -8°C° 0.1 mm 6 m/s 748 mmHg 90%
15:00 -8°C° 0.1 mm 6 m/s 748 mmHg 91%
16:00 -8°C° 0.1 mm 6 m/s 747 mmHg 92%
17:00 -8°C° 0.3 mm 7 m/s 747 mmHg 93%
18:00 -8°C° 0.3 mm 7 m/s 747 mmHg 93%
19:00 -8°C° 0.3 mm 7 m/s 747 mmHg 94%
20:00 -8°C° 0.3 mm 7 m/s 747 mmHg 94%
21:00 -8°C° 0.3 mm 6 m/s 747 mmHg 94%
22:00 -8°C° 0.3 mm 6 m/s 747 mmHg 95%
23:00 -10°C° 0.2 mm 5 m/s 747 mmHg 94%

Après-demain, 17 Janvier, Dimanche

Heure Température Précipitation Vent Pression Humidité
00:00 -10°C° 0.2 mm 4 m/s 747 mmHg 94%
01:00 -12°C° 0.2 mm 3 m/s 748 mmHg 93%
02:00 -13°C° 0 mm 3 m/s 748 mmHg 92%
03:00 -13°C° 0 mm 2 m/s 748 mmHg 91%
04:00 -15°C° 0 mm 2 m/s 748 mmHg 89%
05:00 -15°C° 0 mm 2 m/s 748 mmHg 90%
06:00 -16°C° 0 mm 2 m/s 748 mmHg 90%
07:00 -17°C° 0 mm 2 m/s 748 mmHg 91%
08:00 -14°C° 0 mm 1 m/s 749 mmHg 90%
09:00 -14°C° 0 mm 1 m/s 749 mmHg 90%
10:00 -14°C° 0 mm 1 m/s 749 mmHg 89%
11:00 -13°C° 0 mm 1 m/s 750 mmHg 88%
12:00 -12°C° 0 mm 1 m/s 750 mmHg 87%
13:00 -12°C° 0 mm 1 m/s 750 mmHg 86%
14:00 -12°C° 0 mm 1 m/s 750 mmHg 87%
15:00 -13°C° 0 mm 1 m/s 750 mmHg 89%
16:00 -14°C° 0 mm 1 m/s 750 mmHg 91%
17:00 -14°C° 0 mm 1 m/s 750 mmHg 91%
18:00 -14°C° 0 mm 1 m/s 751 mmHg 91%
19:00 -17°C° 0 mm 2 m/s 751 mmHg 91%
20:00 -15°C° 0 mm 1 m/s 751 mmHg 91%
21:00 -15°C° 0 mm 1 m/s 752 mmHg 91%
22:00 -15°C° 0 mm 1 m/s 752 mmHg 91%
23:00 -15°C° 0 mm 1 m/s 752 mmHg 91%

18 Janvier, Lundi

Heure Température Précipitation Vent Pression Humidité
00:00 -15°C° 0 mm 1 m/s 752 mmHg 91%
01:00 -15°C° 0 mm 1 m/s 752 mmHg 91%
02:00 -15°C° 0 mm 1 m/s 752 mmHg 91%
03:00 -17°C° 0 mm 2 m/s 752 mmHg 90%
04:00 -16°C° 0 mm 2 m/s 751 mmHg 90%
05:00 -16°C° 0 mm 2 m/s 751 mmHg 90%
06:00 -16°C° 0 mm 2 m/s 752 mmHg 90%
07:00 -16°C° 0 mm 2 m/s 752 mmHg 89%
08:00 -16°C° 0 mm 2 m/s 752 mmHg 89%
09:00 -15°C° 0 mm 2 m/s 752 mmHg 88%
10:00 -14°C° 0 mm 2 m/s 752 mmHg 87%
11:00 -13°C° 0 mm 2 m/s 751 mmHg 87%
12:00 -12°C° 0 mm 2 m/s 751 mmHg 86%
13:00 -10°C° 0 mm 2 m/s 751 mmHg 86%
14:00 -10°C° 0 mm 2 m/s 751 mmHg 87%
15:00 -9°C° 0 mm 2 m/s 750 mmHg 89%
16:00 -9°C° 0 mm 2 m/s 750 mmHg 90%
17:00 -8°C° 0.2 mm 2 m/s 750 mmHg 92%
18:00 -8°C° 0.2 mm 2 m/s 750 mmHg 94%
19:00 -7°C° 0.2 mm 2 m/s 750 mmHg 96%
20:00 -6°C° 0.2 mm 2 m/s 750 mmHg 96%
21:00 -5°C° 0.2 mm 2 m/s 750 mmHg 97%
22:00 -3°C° 0.2 mm 2 m/s 750 mmHg 97%
23:00 -3°C° 0.3 mm 2 m/s 750 mmHg 97%

19 Janvier, Mardi

Heure Température Précipitation Vent Pression Humidité
00:00 -2°C° 0.3 mm 3 m/s 750 mmHg 98%
01:00 -2°C° 0.3 mm 4 m/s 750 mmHg 98%
02:00 -2°C° 0.1 mm 4 m/s 750 mmHg 97%
03:00 -2°C° 0.1 mm 4 m/s 750 mmHg 97%
04:00 -2°C° 0.1 mm 4 m/s 750 mmHg 97%
05:00 -2°C° 0 mm 4 m/s 750 mmHg 96%
06:00 -2°C° 0 mm 3 m/s 750 mmHg 95%
07:00 -2°C° 0 mm 3 m/s 750 mmHg 94%
08:00 -4°C° 0 mm 3 m/s 749 mmHg 93%
09:00 -4°C° 0 mm 3 m/s 749 mmHg 91%
10:00 -4°C° 0 mm 4 m/s 749 mmHg 90%
11:00 -4°C° 0 mm 4 m/s 749 mmHg 89%
12:00 -4°C° 0 mm 5 m/s 748 mmHg 88%
13:00 -4°C° 0 mm 5 m/s 748 mmHg 87%
14:00 -4°C° 0 mm 5 m/s 747 mmHg 86%
15:00 -2°C° 0 mm 5 m/s 746 mmHg 85%
16:00 -2°C° 0 mm 5 m/s 746 mmHg 83%
17:00 -2°C° 0 mm 5 m/s 746 mmHg 85%
18:00 -3°C° 0 mm 6 m/s 745 mmHg 87%
19:00 -3°C° 0 mm 6 m/s 745 mmHg 89%
20:00 -3°C° 0.1 mm 6 m/s 745 mmHg 90%
21:00 -1°C° 0.1 mm 5 m/s 745 mmHg 91%
22:00 -1°C° 0.1 mm 5 m/s 745 mmHg 91%
23:00 -1°C° 0.3 mm 5 m/s 744 mmHg 94%

20 Janvier, Mercredi

Heure Température Précipitation Vent Pression Humidité
00:00 -1°C° 0.3 mm 4 m/s 744 mmHg 96%
01:00 -1°C° 0.3 mm 4 m/s 744 mmHg 98%
02:00 -1°C° 0.1 mm 4 m/s 744 mmHg 97%
03:00 0°C° 0.1 mm 4 m/s 744 mmHg 96%
04:00 0°C° 0.1 mm 4 m/s 743 mmHg 95%
05:00 0°C° 0 mm 4 m/s 743 mmHg 95%
06:00 0°C° 0 mm 4 m/s 743 mmHg 95%
07:00 0°C° 0 mm 5 m/s 743 mmHg 94%
08:00 0°C° 0 mm 5 m/s 743 mmHg 92%
09:00 0°C° 0 mm 5 m/s 743 mmHg 90%
10:00 0°C° 0 mm 5 m/s 743 mmHg 88%
11:00 0°C° 0 mm 5 m/s 743 mmHg 87%
12:00 0°C° 0 mm 5 m/s 743 mmHg 86%
13:00 0°C° 0 mm 5 m/s 743 mmHg 85%
14:00 0°C° 0 mm 5 m/s 743 mmHg 84%
15:00 0°C° 0 mm 5 m/s 743 mmHg 83%
16:00 -1°C° 0 mm 6 m/s 742 mmHg 82%
17:00 0°C° 0 mm 5 m/s 742 mmHg 82%
18:00 0°C° 0 mm 5 m/s 742 mmHg 81%
19:00 0°C° 0 mm 5 m/s 743 mmHg 81%
20:00 0°C° 0 mm 5 m/s 742 mmHg 80%
21:00 -1°C° 0 mm 5 m/s 742 mmHg 79%
22:00 -1°C° 0 mm 5 m/s 742 mmHg 78%
23:00 -1°C° 0 mm 5 m/s 742 mmHg 78%
Voir plus

Nous avons besoin de votre consentement

Meteoprog et ses fournisseurs de services peuvent stocker et accéder à des données personnelles telles que des cookies, des identifiants d'appareils ou d'autres technologies similaires sur votre appareil et traiter ces données pour personnaliser le contenu et les publicités, ainsi que pour fournir des fonctionnalités de médias sociaux et analyser le trafic.

  • Stocker et/ou accéder à des informations sur votre appareil

    Des cookies, des identifiants d'appareils ou d'autres informations peuvent être stockés ou accessibles sur votre appareil aux fins indiquées ci-dessus.

  • Annonces et contenus personnalisés, mesure des annonces et des contenus, connaissance de l'audience et développement de produits

    Les annonces et le contenu peuvent être personnalisés en fonction d'un profil. D'autres données peuvent être ajoutées pour mieux personnaliser les annonces et le contenu. Les performances des publicités et du contenu peuvent être mesurées. Il est possible d'obtenir des informations sur le public qui a vu les publicités et le contenu. Ces données peuvent être utilisées pour développer ou améliorer l'expérience de l'utilisateur, les systèmes et les logiciels.

En cliquant sur "J'accepte", vous autorisez l'utilisation de cookies, des identifiants d'appareils, des balises web ou d'autres technologies similaires. Vos paramètres peuvent être modifiés dans le navigateur de votre appareil.

Dans certains cas, des intérêts légitimes peuvent être invoqués plutôt qu'un consentement. Vous pouvez en savoir plus à ce sujet dans notre Politique de confidentialité et de cookies.